[[{"header":{"parameterUnit":"m.s-1","parameterCategory":2,"la1":30.2991,"la2":30.254,"lo1":-89.0895,"lo2":-89.0444,"dy":0.0017,"dx":0.0017,"nx":28,"ny":28,"refTime":"2025-04-14T09:00:00:Z","depth":"0","parameterNumber":2,"parameterNumberName":"U-component_of_CURRENTS"},"data":[0,0,0,0,0,0,0,0,0,0,0,0,0,0,0,0,0,0,0,0,0,0,0,0,0,0,0,0,0,0,0,0,0,0,0,0,0,0,0,0,0,0,0,0,0,0,0,0,0,0,0,0,0,0,0,0,0,0,-0.2477,-0.2478,0,-0.2512,-0.2512,-0.2513,-0.246,-0.2459,-0.2457,-0.2456,-0.2388,-0.2388,-0.2388,0,0,0,0,0,0,0,0,0,0,0,0,0,-0.2398,-0.24,-0.2477,-0.2478,-0.2478,-0.2512,-0.2512,-0.2513,-0.2461,-0.2459,-0.2457,-0.2455,-0.2388,-0.2388,-0.2388,0,0,0,0,0,0,0,0,0,0,0,0,0,-0.2431,-0.24,-0.2477,-0.2458,-0.2457,-0.2512,-0.2512,-0.2513,-0.2461,-0.2459,-0.2456,-0.2454,-0.2388,-0.2388,-0.2387,-0.2434,0,0,-0.2386,-0.2386,0,0,0,0,0,0,0,0,-0.2429,-0.2434,-0.246,-0.2459,-0.2458,-0.2481,-0.246,-0.2482,-0.2462,-0.2457,-0.2456,-0.2453,-0.2413,-0.241,-0.2421,-0.2431,-0.2428,-0.2386,-0.2386,-0.2386,-0.2386,0,0,0,0,0,0,0,-0.2427,-0.2432,-0.2489,-0.2461,-0.246,-0.2459,-0.246,-0.2464,-0.2445,-0.2458,-0.2454,-0.2462,-0.2411,-0.2422,-0.2419,-0.2427,-0.2386,-0.2386,-0.2386,-0.2385,-0.2452,-0.2454,0,0,0,0,0,0,-0.2428,-0.243,-0.2488,-0.249,-0.2439,-0.2462,-0.2464,-0.2475,-0.2447,-0.2442,-0.2464,-0.246,-0.2424,-0.2419,-0.2416,-0.2439,-0.2386,-0.2385,-0.2385,-0.245,-0.2452,-0.2455,0,0,0,0,0,0,-0.2426,-0.2433,-0.2487,-0.2462,-0.2469,-0.2466,-0.2479,-0.2477,-0.2474,-0.2454,-0.2446,-0.2462,-0.2421,-0.2417,-0.2424,-0.2436,-0.2385,-0.2385,-0.2448,-0.2451,-0.2453,-0.2504,0,0,0,0,0,0,-0.2424,-0.2432,-0.2437,-0.2462,-0.247,-0.2511,-0.2482,-0.2479,-0.2485,-0.2478,-0.245,-0.2442,-0.2419,-0.2425,-0.2424,-0.2435,-0.2385,-0.2445,-0.2449,-0.2453,-0.25,-0.2508,-0.2516,0,0,0,0,0,-0.2421,-0.2437,-0.2437,-0.2443,-0.2478,-0.2512,-0.2516,-0.2504,-0.2487,-0.2491,-0.2482,-0.2442,-0.2447,-0.2427,-0.2425,-0.2436,-0.2443,-0.2448,-0.2452,-0.2496,-0.2507,-0.2515,0,0,0,0,0,0,-0.2403,-0.2434,-0.2434,-0.2457,-0.248,-0.2503,-0.2509,-0.2509,-0.251,-0.2497,-0.2471,-0.2464,-0.2476,-0.2461,-0.2439,-0.247,-0.2438,-0.2443,-0.2472,-0.2482,-0.249,-0.2493,-0.2384,0,0,0,0,0,-0.2406,-0.2421,-0.2453,-0.247,-0.2483,-0.2499,-0.251,-0.2508,-0.2516,-0.2512,-0.2499,-0.2492,-0.25,-0.2492,-0.2495,-0.2514,-0.2479,-0.2522,-0.253,-0.2536,-0.2541,-0.2537,-0.2545,-0.2469,-0.2469,-0.2469,0,0,-0.2403,-0.2423,-0.243,-0.2467,-0.2482,-0.2517,-0.2497,-0.2518,-0.2542,-0.2507,-0.2526,-0.2519,-0.2515,-0.2535,-0.2538,-0.2517,-0.2531,-0.2542,-0.2548,-0.2548,-0.2543,-0.255,-0.2556,-0.2472,-0.2472,-0.2471,0,0,-0.2416,-0.2425,-0.2447,-0.2474,-0.2504,-0.2521,-0.2528,-0.2555,-0.2555,-0.2584,-0.257,-0.2577,-0.2581,-0.2585,-0.2588,-0.2647,-0.2578,-0.2642,-0.2676,-0.2673,-0.2678,-0.2683,-0.2602,-0.2598,-0.2641,-0.2641,-0.2641,0,-0.2414,-0.2449,-0.2459,-0.2496,-0.2522,-0.2526,-0.2565,-0.2581,-0.2605,-0.2616,-0.2589,-0.2623,-0.2608,-0.2649,-0.2664,-0.2662,-0.2622,-0.2634,-0.2681,-0.2685,-0.2688,-0.2604,-0.26,-0.2644,-0.2644,-0.2643,-0.2643,0,-0.2449,-0.2482,-0.2499,-0.2548,-0.2575,-0.2608,-0.2638,-0.2658,-0.2657,-0.2669,-0.2698,-0.2694,-0.2707,-0.2711,-0.27,-0.2732,-0.2679,-0.2692,-0.2649,-0.2699,-0.2607,-0.2601,-0.2648,-0.2647,-0.2646,-0.2645,0,0,-0.2437,-0.2511,-0.2516,-0.255,-0.2606,-0.2633,-0.268,-0.2725,-0.2753,-0.2758,-0.279,-0.2807,-0.279,-0.2795,-0.2787,-0.2785,-0.2757,-0.2747,-0.2746,-0.2651,-0.2688,-0.2609,-0.2594,-0.2776,-0.2777,-0.2778,-0.2595,0,-0.2464,-0.2534,-0.2569,-0.2638,-0.2677,-0.2711,-0.2759,-0.2794,-0.281,-0.2838,-0.2834,-0.2856,-0.2828,-0.2831,-0.2828,-0.2787,-0.2754,-0.2801,-0.2667,-0.2662,-0.2575,-0.2591,-0.2434,-0.2257,-0.2589,-0.2588,-0.2588,0,-0.2483,-0.2532,-0.2599,-0.2688,-0.2709,-0.2748,-0.2816,-0.2862,-0.2904,-0.2915,-0.293,-0.2921,-0.2917,-0.2893,-0.2818,-0.2847,-0.2768,-0.2724,-0.2717,-0.2627,-0.2576,-0.2273,-0.2235,-0.2211,-0.2579,-0.258,-0.258,0,-0.2451,-0.2551,-0.2602,-0.2632,-0.2731,-0.2763,-0.281,-0.2869,-0.2906,-0.2953,-0.2966,-0.2968,-0.2938,-0.2891,-0.278,-0.2799,-0.2676,-0.2689,-0.2533,-0.2522,-0.2355,-0.233,-0.2268,-0.2634,-0.2634,-0.2635,-0.2635,0,-0.2463,-0.2504,-0.2588,-0.2615,-0.2678,-0.2749,-0.2811,-0.2862,-0.2926,-0.294,-0.2988,-0.2973,-0.294,-0.2864,-0.2783,-0.2617,-0.2663,-0.2527,-0.2486,-0.2364,-0.2343,-0.2289,-0.234,-0.2628,-0.2629,-0.2631,-0.2632,0,-0.2411,-0.2477,-0.2531,-0.2628,-0.266,-0.2692,-0.2795,-0.2827,-0.2908,-0.2925,-0.2935,-0.2947,-0.2842,-0.2783,-0.2665,-0.2582,-0.2411,-0.2397,-0.2216,-0.216,-0.202,-0.2079,-0.2005,-0.1943,-0.2195,-0.2192,-0.219,0,-0.2384,-0.2404,-0.25,-0.2517,-0.2555,-0.2623,-0.266,-0.2784,-0.2808,-0.2874,-0.2852,-0.2806,-0.27,-0.2513,-0.2383,-0.2214,-0.2258,-0.1996,-0.2035,-0.1984,-0.202,-0.2091,-0.205,-0.1794,-0.1788,-0.1784,-0.1781,0,-0.2297,-0.2324,-0.2357,-0.2399,-0.2437,-0.2495,-0.2551,-0.258,-0.2684,-0.2699,-0.2639,-0.2571,-0.2418,-0.218,-0.2026,-0.1921,-0.1958,-0.1901,-0.1905,-0.1754,-0.1769,-0.1696,-0.1904,-0.1741,-0.1745,-0.1748,-0.175,-0.1752,-0.2183,-0.2178,-0.22,-0.2235,-0.2272,-0.2282,-0.2261,-0.2315,-0.2315,-0.2252,-0.2331,-0.217,-0.2044,-0.1798,-0.1696,-0.151,-0.1651,-0.1447,-0.1525,-0.1603,-0.156,-0.166,-0.1445,-0.1447,-0.1449,-0.1451,-0.1452,0,-0.2021,-0.2019,-0.2028,-0.2034,-0.1994,-0.2088,-0.2107,-0.2039,-0.1935,-0.1926,-0.1832,-0.1701,-0.1489,-0.1419,-0.1248,-0.1153,-0.1139,-0.1145,-0.1202,-0.1181,-0.1272,-0.1273,-0.0942,-0.0942,-0.0943,-0.0943,-0.0943,-0.0943,-0.1921,-0.1865,-0.188,-0.174,-0.1732,-0.1621,-0.1588,-0.1509,-0.1467,-0.1297,-0.1223,-0.1207,-0.1222,-0.1268,-0.1107,-0.102,-0.1036,-0.0989,-0.1082,-0.1148,-0.1183,-0.1216,-0.1227,-0.0892,-0.0892,-0.0884,-0.0884,-0.0884]},{"header":{"parameterUnit":"m.s-1","parameterCategory":2,"la1":30.2991,"la2":30.254,"lo1":-89.0895,"lo2":-89.0444,"dy":0.0017,"dx":0.0017,"nx":28,"ny":28,"refTime":"2025-04-14T09:00:00:Z","depth":"0","parameterNumber":3,"parameterNumberName":"V-component_of_CURRENTS"},"data":[0,0,0,0,0,0,0,0,0,0,0,0,0,0,0,0,0,0,0,0,0,0,0,0,0,0,0,0,0,0,0,0,0,0,0,0,0,0,0,0,0,0,0,0,0,0,0,0,0,0,0,0,0,0,0,0,0,0,-0.0245,-0.0245,0,-0.0198,-0.0198,-0.0197,-0.015,-0.0149,-0.0149,-0.0148,-0.0057,-0.0055,-0.0053,0,0,0,0,0,0,0,0,0,0,0,0,0,-0.0235,-0.0235,-0.0245,-0.0245,-0.0244,-0.0198,-0.0198,-0.0197,-0.015,-0.0149,-0.0149,-0.0148,-0.0057,-0.0055,-0.0053,0,0,0,0,0,0,0,0,0,0,0,0,0,-0.0217,-0.0235,-0.0245,-0.0217,-0.0214,-0.0199,-0.0198,-0.0197,-0.015,-0.0149,-0.0148,-0.0148,-0.0058,-0.0055,-0.0052,-0.0049,0,0,-0.0043,-0.0042,0,0,0,0,0,0,0,0,-0.0218,-0.0217,-0.0221,-0.0219,-0.0215,-0.018,-0.016,-0.0145,-0.015,-0.0172,-0.0148,-0.0147,-0.0096,-0.0089,-0.0081,-0.0044,-0.004,-0.0043,-0.0041,-0.004,-0.0039,0,0,0,0,0,0,0,-0.022,-0.0219,-0.0225,-0.0221,-0.0217,-0.0186,-0.0183,-0.0157,-0.0137,-0.017,-0.0167,-0.0165,-0.0093,-0.0084,-0.0078,-0.0039,-0.0043,-0.004,-0.0039,-0.0037,0.0051,0.0052,0,0,0,0,0,0,-0.0233,-0.0221,-0.0227,-0.0224,-0.0217,-0.0187,-0.0183,-0.0191,-0.0138,-0.013,-0.0165,-0.0163,-0.0089,-0.0082,-0.0075,-0.0042,-0.004,-0.0037,-0.0035,0.0051,0.0051,0.0052,0,0,0,0,0,0,-0.0233,-0.0234,-0.0228,-0.0221,-0.0219,-0.0188,-0.0197,-0.0191,-0.018,-0.0135,-0.0125,-0.0161,-0.0088,-0.0079,-0.0042,-0.0039,-0.0036,-0.0033,0.005,0.0051,0.0052,0.0007,0,0,0,0,0,0,-0.0233,-0.0235,-0.0244,-0.0223,-0.022,-0.0227,-0.0198,-0.019,-0.018,-0.0176,-0.0128,-0.0119,-0.0087,-0.0047,-0.0039,-0.0035,-0.0031,0.0049,0.005,0.0051,0.0008,0.0007,0.0005,0,0,0,0,0,-0.0233,-0.0253,-0.0245,-0.0245,-0.0234,-0.0228,-0.0224,-0.0197,-0.0181,-0.0183,-0.0139,-0.012,-0.0034,-0.0044,-0.0035,-0.003,0.0049,0.005,0.0051,0.0009,0.0007,0.0005,0,0,0,0,0,0,-0.0254,-0.025,-0.024,-0.0258,-0.0246,-0.0221,-0.0221,-0.0203,-0.0171,-0.0164,-0.0116,-0.0104,-0.007,-0.0043,-0.0055,0.0001,0.0011,0.0014,-0.0024,-0.0025,-0.0027,-0.0047,-0.0028,0,0,0,0,0,-0.0264,-0.0276,-0.0264,-0.0276,-0.0274,-0.0248,-0.0241,-0.0226,-0.0197,-0.0183,-0.0146,-0.0101,-0.0059,-0.0038,-0.0002,0.0024,0.0061,0.0035,0.0034,0.0032,0.0024,0.0109,0.0114,0.0056,0.0056,0.0056,0,0,-0.0274,-0.0274,-0.0279,-0.0281,-0.0268,-0.0277,-0.0242,-0.0239,-0.0237,-0.0178,-0.0158,-0.0109,-0.0053,-0.0018,-0.0001,0.0004,0.0065,0.0034,0.0032,0.0024,0.0111,0.0117,0.0122,0.0057,0.0057,0.0057,0,0,-0.0307,-0.0302,-0.0325,-0.0323,-0.0315,-0.0299,-0.0302,-0.0279,-0.0258,-0.0237,-0.0182,-0.0128,-0.0083,-0.0029,0.0002,0.0014,0.0054,0.0023,-0.0,0.0083,0.0088,0.0094,0.0128,0.0137,0.0023,0.0023,0.0023,0,-0.0319,-0.035,-0.0328,-0.0351,-0.0355,-0.0314,-0.0338,-0.0313,-0.0278,-0.0252,-0.0239,-0.013,-0.0086,-0.0018,-0.0014,0.001,0.0047,-0.0001,0.0081,0.0087,0.0093,0.0127,0.0137,0.0021,0.0022,0.0022,0.0022,0,-0.0369,-0.0394,-0.0407,-0.0422,-0.0419,-0.0434,-0.0403,-0.0385,-0.0352,-0.0314,-0.0246,-0.017,-0.0104,-0.0076,-0.0045,0.0024,0.0031,0.0068,0.0081,0.0096,0.0131,0.0142,0.0018,0.0019,0.002,0.002,0,0,-0.0407,-0.0437,-0.0445,-0.0469,-0.0461,-0.0469,-0.0454,-0.0426,-0.0401,-0.0345,-0.03,-0.0214,-0.0158,-0.0119,-0.0055,0.0015,0.0084,0.0049,0.0054,0.0073,0.0236,0.0192,0.0201,0.014,0.0142,0.0144,0.0234,0,-0.0456,-0.0522,-0.0513,-0.0566,-0.0599,-0.0556,-0.0544,-0.0503,-0.0445,-0.0387,-0.0283,-0.022,-0.0177,-0.0138,-0.0059,0.0059,0.0115,0.0054,0.0225,0.0229,0.0184,0.0214,0.0275,0.0357,0.0246,0.0247,0.0249,0,-0.0519,-0.0555,-0.0619,-0.0647,-0.0653,-0.0664,-0.0628,-0.0612,-0.0506,-0.0454,-0.036,-0.0276,-0.0164,-0.0129,0.0062,0.0022,0.011,0.0196,0.0203,0.0185,0.0209,0.0331,0.0383,0.0584,0.0267,0.0265,0.0264,0,-0.0579,-0.0634,-0.0688,-0.0701,-0.0714,-0.0717,-0.0708,-0.063,-0.0605,-0.0489,-0.0443,-0.0298,-0.0218,-0.0075,0.007,0.0082,0.0269,0.0318,0.0356,0.0353,0.0449,0.0449,0.0711,0.0441,0.0441,0.0441,0.0441,0,-0.0652,-0.0698,-0.0722,-0.0757,-0.0807,-0.078,-0.079,-0.0747,-0.0663,-0.0625,-0.0484,-0.0422,-0.0197,-0.0069,0.0063,0.0224,0.0264,0.0349,0.0383,0.043,0.0428,0.0641,0.0703,0.0444,0.0443,0.0443,0.0442,0,-0.0724,-0.0738,-0.081,-0.0836,-0.0846,-0.0882,-0.0878,-0.0869,-0.0773,-0.0713,-0.0681,-0.0497,-0.0339,-0.0151,0.0084,0.0208,0.0475,0.0404,0.0407,0.0439,0.0664,0.0719,0.0928,0.1038,0.0492,0.0492,0.0491,0,-0.0768,-0.0811,-0.0881,-0.0927,-0.0946,-0.0985,-0.1003,-0.094,-0.0919,-0.077,-0.0745,-0.0576,-0.0474,-0.017,0.0083,0.0303,0.0455,0.0488,0.0529,0.0683,0.0773,0.0802,0.0884,0.0642,0.0643,0.0644,0.0645,0,-0.0847,-0.0868,-0.0927,-0.1024,-0.1073,-0.1122,-0.1134,-0.1134,-0.1036,-0.0971,-0.0867,-0.0773,-0.0468,-0.0175,0.0113,0.0262,0.0638,0.0507,0.0719,0.094,0.0945,0.1065,0.0536,0.0651,0.0651,0.065,0.065,0.065,-0.0894,-0.0964,-0.1035,-0.1123,-0.1181,-0.1229,-0.1251,-0.1239,-0.1212,-0.1087,-0.0996,-0.0788,-0.0322,0.0098,0.0259,0.0718,0.0672,0.09,0.0959,0.0979,0.1077,0.0506,0.0619,0.0618,0.0617,0.0617,0.0616,0,-0.0962,-0.103,-0.1124,-0.1219,-0.1284,-0.1289,-0.1309,-0.1288,-0.1256,-0.1138,-0.1039,-0.0491,-0.0065,0.0388,0.0988,0.1217,0.1294,0.1331,0.1468,0.1537,0.1112,0.1113,0.1275,0.1275,0.1275,0.1275,0.1274,0.1274,-0.1,-0.1106,-0.1159,-0.1276,-0.1328,-0.137,-0.1372,-0.1324,-0.122,-0.0968,-0.0655,-0.0417,0.0294,0.1136,0.1692,0.1735,0.1966,0.1889,0.1998,0.1787,0.1755,0.1724,0.1747,0.204,0.204,0.246,0.2464,0.2467]}],[{"header":{"parameterUnit":"m.s-1","parameterCategory":2,"la1":30.2991,"la2":30.254,"lo1":-89.0895,"lo2":-89.0444,"dy":0.0017,"dx":0.0017,"nx":28,"ny":28,"refTime":"2025-04-14T09:00:00:Z","depth":"2","parameterNumber":2,"parameterNumberName":"U-component_of_CURRENTS"},"data":[0,0,0,0,0,0,0,0,0,0,0,0,0,0,0,0,0,0,0,0,0,0,0,0,0,0,0,0,0,0,0,0,0,0,0,0,0,0,0,0,0,0,0,0,0,0,0,0,0,0,0,0,0,0,0,0,0,0,-0.2943,-0.2944,0,-0.2982,-0.2982,-0.2982,-0.2924,-0.2922,-0.2921,-0.2919,-0.2822,-0.2822,-0.2821,0,0,0,0,0,0,0,0,0,0,0,0,0,-0.2694,-0.2699,-0.2943,-0.2944,-0.2945,-0.2982,-0.2982,-0.2982,-0.2924,-0.2922,-0.292,-0.2918,-0.2823,-0.2822,-0.2821,0,0,0,0,0,0,0,0,0,0,0,0,0,-0.2772,-0.2701,-0.2943,-0.2922,-0.2921,-0.2982,-0.2982,-0.2982,-0.2925,-0.2922,-0.292,-0.2917,-0.2823,-0.2822,-0.282,-0.2867,0,0,-0.2816,-0.2816,0,0,0,0,0,0,0,0,-0.2768,-0.2781,-0.2924,-0.2923,-0.2922,-0.2947,-0.2859,-0.2938,-0.2926,-0.2921,-0.2919,-0.2916,-0.2855,-0.2851,-0.2863,-0.2862,-0.2858,-0.2816,-0.2816,-0.2815,-0.2815,0,0,0,0,0,0,0,-0.2763,-0.2778,-0.2956,-0.2925,-0.2924,-0.2868,-0.2877,-0.2873,-0.2898,-0.2921,-0.2917,-0.2927,-0.2853,-0.2865,-0.286,-0.2857,-0.2816,-0.2815,-0.2814,-0.2814,-0.2834,-0.2835,0,0,0,0,0,0,-0.2774,-0.2775,-0.2955,-0.2957,-0.2839,-0.2875,-0.2885,-0.294,-0.2901,-0.2895,-0.2929,-0.2924,-0.2868,-0.2862,-0.2856,-0.2848,-0.2815,-0.2814,-0.2813,-0.2833,-0.2834,-0.2836,0,0,0,0,0,0,-0.2769,-0.2792,-0.2953,-0.2865,-0.2882,-0.2883,-0.2945,-0.2942,-0.2935,-0.2909,-0.2899,-0.2922,-0.2866,-0.2858,-0.2847,-0.2845,-0.2813,-0.2812,-0.2831,-0.2833,-0.2835,-0.2869,0,0,0,0,0,0,-0.2763,-0.2791,-0.2819,-0.2868,-0.2888,-0.2995,-0.2948,-0.2945,-0.2947,-0.294,-0.2901,-0.289,-0.2863,-0.285,-0.2846,-0.2843,-0.2811,-0.283,-0.2832,-0.2835,-0.2867,-0.2872,-0.2877,0,0,0,0,0,-0.2754,-0.2797,-0.2822,-0.2841,-0.2934,-0.2997,-0.3002,-0.2988,-0.295,-0.2966,-0.293,-0.289,-0.2862,-0.285,-0.2845,-0.2842,-0.2828,-0.2831,-0.2834,-0.2864,-0.2871,-0.2877,0,0,0,0,0,0,-0.2716,-0.2797,-0.2824,-0.2896,-0.295,-0.2987,-0.2996,-0.299,-0.2978,-0.2949,-0.2912,-0.2902,-0.2893,-0.2874,-0.2862,-0.2859,-0.2837,-0.284,-0.2862,-0.2868,-0.2873,-0.2887,-0.281,0,0,0,0,0,-0.2727,-0.2768,-0.2854,-0.291,-0.2943,-0.2971,-0.2986,-0.2982,-0.2987,-0.2978,-0.2946,-0.2916,-0.291,-0.2892,-0.2885,-0.2886,-0.2862,-0.2881,-0.2886,-0.2891,-0.2902,-0.2884,-0.2888,-0.2846,-0.2846,-0.2846,0,0,-0.2723,-0.2775,-0.2798,-0.29,-0.2938,-0.2985,-0.2972,-0.3001,-0.3009,-0.2969,-0.2949,-0.2935,-0.2919,-0.2918,-0.2911,-0.2893,-0.2888,-0.2895,-0.2898,-0.2907,-0.2888,-0.2892,-0.2895,-0.2848,-0.2847,-0.2847,0,0,-0.2738,-0.28,-0.2842,-0.2891,-0.2953,-0.2976,-0.2986,-0.3023,-0.3012,-0.3017,-0.2985,-0.298,-0.2956,-0.2953,-0.2947,-0.2984,-0.2924,-0.2967,-0.2992,-0.2975,-0.2978,-0.298,-0.2937,-0.2935,-0.296,-0.2961,-0.2961,0,-0.2729,-0.281,-0.2861,-0.2919,-0.2945,-0.2974,-0.3017,-0.3029,-0.304,-0.304,-0.3007,-0.3,-0.2979,-0.2996,-0.3002,-0.2994,-0.296,-0.2964,-0.298,-0.2982,-0.2984,-0.2939,-0.2936,-0.2963,-0.2962,-0.2962,-0.2962,0,-0.2771,-0.284,-0.287,-0.295,-0.2988,-0.3026,-0.3067,-0.3075,-0.3052,-0.306,-0.3065,-0.3053,-0.3046,-0.3041,-0.3028,-0.3038,-0.3,-0.2993,-0.2959,-0.299,-0.294,-0.2937,-0.2965,-0.2965,-0.2964,-0.2964,0,0,-0.2735,-0.2873,-0.2878,-0.2927,-0.2999,-0.3035,-0.3061,-0.3107,-0.3116,-0.311,-0.312,-0.3123,-0.3109,-0.3105,-0.3088,-0.3077,-0.3053,-0.3034,-0.3032,-0.2981,-0.2983,-0.2824,-0.2805,-0.3034,-0.3034,-0.3035,-0.2936,0,-0.2751,-0.2853,-0.2906,-0.2977,-0.3037,-0.3073,-0.3103,-0.3132,-0.314,-0.3153,-0.315,-0.3154,-0.3134,-0.3123,-0.3113,-0.3072,-0.3049,-0.3079,-0.297,-0.2967,-0.2814,-0.2798,-0.2613,-0.2498,-0.2932,-0.2932,-0.2931,0,-0.2737,-0.283,-0.2909,-0.3012,-0.3039,-0.3063,-0.3107,-0.314,-0.3179,-0.3188,-0.3199,-0.3192,-0.3185,-0.3159,-0.31,-0.311,-0.3052,-0.3018,-0.3013,-0.2853,-0.2802,-0.2542,-0.2475,-0.2925,-0.2926,-0.2926,-0.2927,0,-0.2631,-0.2794,-0.2851,-0.2889,-0.3027,-0.304,-0.3077,-0.3132,-0.3163,-0.3199,-0.3217,-0.3213,-0.3187,-0.3142,-0.3048,-0.3071,-0.296,-0.2983,-0.2791,-0.2779,-0.2596,-0.2565,-0.2944,-0.2945,-0.2945,-0.2945,-0.2945,0,-0.256,-0.2621,-0.2816,-0.2835,-0.2907,-0.3,-0.3038,-0.3075,-0.3146,-0.3137,-0.3215,-0.3182,-0.3179,-0.3108,-0.3044,-0.287,-0.2943,-0.2784,-0.274,-0.2599,-0.2572,-0.2934,-0.2934,-0.2941,-0.2942,-0.2943,-0.2944,0,-0.2386,-0.2531,-0.2615,-0.2783,-0.2846,-0.2864,-0.2996,-0.3009,-0.3115,-0.31,-0.3104,-0.3145,-0.3028,-0.3003,-0.2898,-0.2828,-0.2712,-0.2636,-0.245,-0.2385,-0.2553,-0.2557,-0.2435,-0.2428,-0.2423,-0.2418,-0.2414,0,-0.2291,-0.2332,-0.2519,-0.2562,-0.2627,-0.2728,-0.2772,-0.2936,-0.2927,-0.3017,-0.2946,-0.2929,-0.2808,-0.2649,-0.2515,-0.2372,-0.2509,-0.2145,-0.2171,-0.253,-0.25,-0.2513,-0.2523,-0.1942,-0.1935,-0.1929,-0.1924,0,-0.213,-0.2197,-0.226,-0.2342,-0.2409,-0.2499,-0.2551,-0.2579,-0.2699,-0.2731,-0.2654,-0.2606,-0.2461,-0.2219,-0.2085,-0.1986,-0.2161,-0.2014,-0.2422,-0.2094,-0.2055,-0.203,-0.2058,-0.187,-0.1875,-0.1879,-0.1882,-0.1884,-0.199,-0.1983,-0.2057,-0.2114,-0.2181,-0.2188,-0.2184,-0.2236,-0.2254,-0.2234,-0.228,-0.2174,-0.2128,-0.1812,-0.1655,-0.1565,-0.1737,-0.1699,-0.1723,-0.1752,-0.1707,-0.1659,-0.139,-0.1393,-0.1395,-0.1397,-0.1399,0,-0.1846,-0.185,-0.1839,-0.19,-0.1857,-0.197,-0.1982,-0.1943,-0.1881,-0.1895,-0.1847,-0.1626,-0.146,-0.1434,-0.1194,-0.1128,-0.1168,-0.1093,-0.1174,-0.1226,-0.1273,-0.1211,-0.0759,-0.0757,-0.0755,-0.0754,0,0,-0.1788,-0.1734,-0.1723,-0.1612,-0.1614,-0.1539,-0.1514,-0.146,-0.1441,-0.1369,-0.1342,-0.1435,-0.1422,-0.1123,-0.102,-0.0858,-0.1047,-0.0803,-0.1317,-0.1469,-0.1515,-0.1616,-0.1574,0,0,0,0,0]},{"header":{"parameterUnit":"m.s-1","parameterCategory":2,"la1":30.2991,"la2":30.254,"lo1":-89.0895,"lo2":-89.0444,"dy":0.0017,"dx":0.0017,"nx":28,"ny":28,"refTime":"2025-04-14T09:00:00:Z","depth":"2","parameterNumber":3,"parameterNumberName":"V-component_of_CURRENTS"},"data":[0,0,0,0,0,0,0,0,0,0,0,0,0,0,0,0,0,0,0,0,0,0,0,0,0,0,0,0,0,0,0,0,0,0,0,0,0,0,0,0,0,0,0,0,0,0,0,0,0,0,0,0,0,0,0,0,0,0,-0.0043,-0.0042,0,0.0003,0.0004,0.0005,0.005,0.005,0.0051,0.0051,0.0131,0.0132,0.0134,0,0,0,0,0,0,0,0,0,0,0,0,0,-0.0054,-0.0054,-0.0043,-0.0042,-0.0042,0.0003,0.0004,0.0005,0.005,0.005,0.0051,0.0051,0.013,0.0132,0.0134,0,0,0,0,0,0,0,0,0,0,0,0,0,-0.0032,-0.0054,-0.0043,-0.0015,-0.0012,0.0003,0.0004,0.0005,0.0049,0.005,0.0051,0.0052,0.013,0.0132,0.0134,0.0135,0,0,0.0142,0.0143,0,0,0,0,0,0,0,0,-0.0033,-0.0031,-0.0019,-0.0016,-0.0013,0.0021,0.0029,0.005,0.0049,0.0027,0.0051,0.0052,0.0096,0.0101,0.0109,0.0138,0.0142,0.0142,0.0144,0.0145,0.0146,0,0,0,0,0,0,0,-0.0035,-0.0033,-0.0023,-0.0019,-0.0015,0.0009,0.0012,0.0033,0.0058,0.0029,0.0032,0.0036,0.0098,0.0107,0.0111,0.0143,0.0142,0.0144,0.0146,0.0147,0.021,0.021,0,0,0,0,0,0,-0.0046,-0.0035,-0.0025,-0.0022,-0.0023,0.0008,0.0012,0.001,0.0057,0.0065,0.0035,0.0038,0.0102,0.0108,0.0114,0.0129,0.0145,0.0147,0.0149,0.021,0.021,0.021,0,0,0,0,0,0,-0.0046,-0.0045,-0.0027,-0.0028,-0.0024,0.0007,0.0004,0.001,0.0014,0.0061,0.007,0.0032,0.0103,0.0111,0.0136,0.0132,0.0148,0.015,0.021,0.021,0.021,0.0151,0,0,0,0,0,0,-0.0047,-0.0046,-0.0057,-0.0029,-0.0024,-0.0025,0.0004,0.0011,0.0015,0.0018,0.0061,0.007,0.0104,0.0132,0.0138,0.0136,0.0152,0.021,0.021,0.021,0.0152,0.0149,0.0146,0,0,0,0,0,-0.0047,-0.0069,-0.0058,-0.0057,-0.0039,-0.0026,-0.0022,0.0004,0.0013,0.001,0.0046,0.0068,0.0139,0.0133,0.0141,0.0139,0.0209,0.021,0.021,0.0154,0.015,0.0146,0,0,0,0,0,0,-0.0081,-0.0066,-0.0053,-0.0069,-0.0051,-0.0019,-0.0024,-0.0007,0.0016,0.0018,0.0066,0.0077,0.0099,0.0127,0.0119,0.0161,0.0179,0.0181,0.0134,0.013,0.0127,0.0113,0.0154,0,0,0,0,0,-0.0094,-0.0106,-0.008,-0.0094,-0.0088,-0.0059,-0.0053,-0.0037,-0.0011,-0.0,0.003,0.0068,0.0106,0.0123,0.0155,0.0171,0.0218,0.0178,0.0174,0.0171,0.0166,0.0251,0.0255,0.0212,0.0212,0.0212,0,0,-0.011,-0.0105,-0.0111,-0.0102,-0.0087,-0.0094,-0.0054,-0.0054,-0.0056,0.0004,0.0007,0.0053,0.0108,0.0132,0.0145,0.0154,0.0207,0.0172,0.0169,0.0166,0.0252,0.0256,0.026,0.0212,0.0212,0.0212,0,0,-0.0153,-0.0144,-0.0168,-0.0161,-0.0148,-0.0128,-0.0133,-0.0108,-0.0091,-0.0079,-0.0029,0.0018,0.0054,0.0107,0.0136,0.0133,0.0185,0.0139,0.0111,0.0193,0.0197,0.0202,0.0256,0.0266,0.0139,0.0139,0.0139,0,-0.0174,-0.0201,-0.0172,-0.0193,-0.0198,-0.0151,-0.0176,-0.0153,-0.0122,-0.0099,-0.0088,0.0006,0.0047,0.0106,0.0105,0.0126,0.0171,0.0119,0.0189,0.0194,0.02,0.0255,0.0266,0.0136,0.0137,0.0137,0.0137,0,-0.023,-0.0254,-0.0268,-0.028,-0.0277,-0.0292,-0.0257,-0.0245,-0.0219,-0.0178,-0.012,-0.005,0.0011,0.0034,0.0065,0.0125,0.0143,0.0173,0.0195,0.02,0.0258,0.0271,0.0132,0.0133,0.0134,0.0135,0,0,-0.0276,-0.0304,-0.0312,-0.0337,-0.0328,-0.0335,-0.0329,-0.0299,-0.0279,-0.0227,-0.0188,-0.0112,-0.0055,-0.0018,0.0042,0.0111,0.0183,0.0147,0.0152,0.0194,0.0347,0.0292,0.0301,0.0227,0.0229,0.0231,0.0367,0,-0.0332,-0.04,-0.0391,-0.045,-0.0481,-0.0438,-0.0434,-0.0394,-0.0336,-0.0282,-0.0178,-0.0122,-0.0079,-0.0045,0.0032,0.0151,0.0216,0.0142,0.0342,0.0347,0.0293,0.0314,0.0338,0.0455,0.038,0.0382,0.0384,0,-0.0388,-0.0434,-0.0505,-0.0539,-0.0545,-0.0563,-0.0536,-0.0523,-0.0416,-0.0364,-0.027,-0.0185,-0.0077,-0.0042,0.0159,0.011,0.0211,0.0304,0.0313,0.029,0.0316,0.0442,0.0482,0.0406,0.0405,0.0403,0.0401,0,-0.0441,-0.0509,-0.0573,-0.0589,-0.0613,-0.0626,-0.0623,-0.0545,-0.0521,-0.0407,-0.0358,-0.0214,-0.0133,0.0016,0.0168,0.0181,0.0382,0.0435,0.0483,0.048,0.0553,0.0552,0.0573,0.0573,0.0573,0.0572,0.0572,0,-0.0501,-0.0558,-0.0609,-0.0647,-0.0715,-0.0695,-0.0714,-0.0671,-0.0591,-0.0552,-0.0408,-0.0349,-0.0112,0.0021,0.0162,0.0338,0.0379,0.0478,0.0516,0.0529,0.0524,0.0524,0.0517,0.0577,0.0576,0.0575,0.0574,0,-0.0541,-0.0581,-0.0664,-0.0719,-0.0745,-0.0787,-0.0803,-0.0793,-0.0703,-0.0644,-0.0614,-0.0423,-0.0249,-0.0046,0.0205,0.0328,0.0497,0.0541,0.0512,0.0543,0.0553,0.0541,0.066,0.0659,0.0658,0.0658,0.0658,0,-0.0565,-0.0613,-0.0716,-0.0781,-0.0816,-0.0877,-0.0907,-0.0861,-0.0842,-0.0706,-0.0679,-0.0496,-0.0355,-0.0029,0.0204,0.0449,0.0458,0.0601,0.0632,0.0539,0.0565,0.0554,0.0543,0.072,0.072,0.0721,0.0721,0,-0.0613,-0.0647,-0.0715,-0.0836,-0.0912,-0.0983,-0.1018,-0.1024,-0.0947,-0.0872,-0.0754,-0.0628,-0.0314,-0.0018,0.0271,0.0413,0.0565,0.0608,0.0565,0.0656,0.0597,0.0621,0.0609,0.0722,0.0721,0.0721,0.0721,0.0721,-0.0638,-0.0696,-0.0779,-0.0894,-0.0985,-0.1056,-0.1093,-0.1091,-0.1061,-0.0906,-0.0803,-0.0535,-0.0274,0.0189,0.0352,0.054,0.0562,0.068,0.0681,0.0682,0.0626,0.0565,0.0674,0.0673,0.0673,0.0673,0.0672,0,-0.0666,-0.0736,-0.0834,-0.0968,-0.1057,-0.1089,-0.114,-0.1133,-0.1095,-0.0884,-0.0719,-0.0378,-0.0038,0.0209,0.0518,0.0673,0.0694,0.0695,0.0729,0.0728,0.0727,0.0673,0.0734,0.0734,0.0734,0.0734,0,0,-0.0692,-0.0778,-0.0827,-0.099,-0.1083,-0.1159,-0.1182,-0.1141,-0.0997,-0.0809,-0.0561,-0.0246,0.0057,0.0282,0.0467,0.0622,0.0631,0.0628,0.0576,0.0595,0.0592,0.0726,0.0642,0,0,0,0,0]}],[{"header":{"parameterUnit":"m.s-1","parameterCategory":2,"la1":30.2991,"la2":30.254,"lo1":-89.0895,"lo2":-89.0444,"dy":0.0017,"dx":0.0017,"nx":28,"ny":28,"refTime":"2025-04-14T09:00:00:Z","depth":"4","parameterNumber":2,"parameterNumberName":"U-component_of_CURRENTS"},"data":[0,0,0,0,0,0,0,0,0,0,0,0,0,0,0,0,0,0,0,0,0,0,0,0,0,0,0,0,0,0,0,0,0,0,0,0,0,0,0,0,0,0,0,0,0,0,0,0,0,0,0,0,0,0,0,0,0,0,-0.1481,-0.1482,0,-0.1572,-0.1573,-0.1574,-0.1616,-0.1616,-0.1616,-0.1616,-0.1636,-0.1636,-0.1637,0,0,0,0,0,0,0,0,0,0,0,0,0,-0.1386,-0.1387,-0.1481,-0.1482,-0.1483,-0.1572,-0.1573,-0.1575,-0.1616,-0.1616,-0.1616,-0.1616,-0.1635,-0.1636,-0.1637,0,0,0,0,0,0,0,0,0,0,0,0,0,-0.1446,-0.1388,-0.1481,-0.1515,-0.1519,-0.1572,-0.1573,-0.1575,-0.1616,-0.1616,-0.1616,-0.1616,-0.1635,-0.1636,-0.1637,-0.1642,0,0,-0.1639,-0.164,0,0,0,0,0,0,0,0,-0.1443,-0.145,-0.1509,-0.1513,-0.1518,-0.1583,-0.1548,-0.1594,-0.1616,-0.1578,-0.1616,-0.1616,-0.1612,-0.1615,-0.1632,-0.1643,-0.1644,-0.1639,-0.164,-0.164,-0.164,0,0,0,0,0,0,0,-0.1439,-0.1446,-0.1516,-0.151,-0.1516,-0.1542,-0.155,-0.1557,-0.1592,-0.1581,-0.1585,-0.1597,-0.1614,-0.1631,-0.1632,-0.1644,-0.1639,-0.164,-0.1641,-0.1641,-0.1762,-0.1765,0,0,0,0,0,0,-0.1427,-0.1442,-0.1513,-0.1519,-0.1481,-0.1543,-0.1552,-0.1561,-0.1594,-0.1599,-0.1596,-0.1598,-0.163,-0.1631,-0.1633,-0.1699,-0.164,-0.1641,-0.1641,-0.1759,-0.1763,-0.1766,0,0,0,0,0,0,-0.1425,-0.1433,-0.1509,-0.1483,-0.1495,-0.1545,-0.1555,-0.1563,-0.1604,-0.1606,-0.161,-0.1631,-0.163,-0.1632,-0.1671,-0.1698,-0.1641,-0.1642,-0.1756,-0.176,-0.1764,-0.1794,0,0,0,0,0,0,-0.1422,-0.1431,-0.1446,-0.1483,-0.1496,-0.1556,-0.1555,-0.1565,-0.161,-0.1614,-0.1637,-0.1638,-0.163,-0.167,-0.1671,-0.1698,-0.1643,-0.1753,-0.1758,-0.1763,-0.179,-0.1799,-0.1806,0,0,0,0,0,-0.1418,-0.1433,-0.1446,-0.1456,-0.1511,-0.1557,-0.1568,-0.1601,-0.1612,-0.1637,-0.1659,-0.1638,-0.1704,-0.1672,-0.1674,-0.1701,-0.175,-0.1757,-0.1762,-0.1786,-0.1797,-0.1806,0,0,0,0,0,0,-0.1401,-0.144,-0.1455,-0.1482,-0.1525,-0.1565,-0.1594,-0.1617,-0.1657,-0.1665,-0.1663,-0.1667,-0.1716,-0.1713,-0.1679,-0.1758,-0.1728,-0.1734,-0.1745,-0.1755,-0.1764,-0.1744,-0.1643,0,0,0,0,0,-0.1404,-0.143,-0.1469,-0.1497,-0.1517,-0.1561,-0.1589,-0.1616,-0.165,-0.1669,-0.1688,-0.1714,-0.174,-0.1751,-0.1775,-0.1807,-0.1795,-0.1834,-0.1842,-0.1849,-0.1839,-0.1872,-0.1881,-0.1786,-0.1786,-0.1786,0,0,-0.1407,-0.1433,-0.1449,-0.1497,-0.1532,-0.1567,-0.1579,-0.1631,-0.1665,-0.1663,-0.1721,-0.1745,-0.176,-0.1804,-0.1825,-0.1803,-0.1869,-0.1857,-0.1862,-0.1848,-0.1879,-0.1888,-0.1896,-0.179,-0.1789,-0.1789,0,0,-0.142,-0.145,-0.1472,-0.151,-0.1567,-0.1592,-0.1612,-0.1669,-0.1701,-0.1757,-0.177,-0.1804,-0.1852,-0.186,-0.1869,-0.1938,-0.1919,-0.1969,-0.1982,-0.2015,-0.2022,-0.2028,-0.2008,-0.2012,-0.1965,-0.1965,-0.1966,0,-0.1425,-0.1454,-0.1489,-0.1523,-0.1555,-0.1604,-0.1637,-0.1679,-0.1746,-0.1767,-0.1782,-0.1863,-0.187,-0.1907,-0.1938,-0.195,-0.1962,-0.1933,-0.2022,-0.2028,-0.2033,-0.2011,-0.2015,-0.1968,-0.1967,-0.1967,-0.1967,0,-0.1447,-0.1483,-0.1504,-0.1556,-0.1595,-0.1639,-0.169,-0.1737,-0.178,-0.1814,-0.1881,-0.1908,-0.1948,-0.1969,-0.197,-0.2025,-0.2017,-0.203,-0.1983,-0.2044,-0.2017,-0.2021,-0.1971,-0.197,-0.1969,-0.1969,0,0,-0.1425,-0.1502,-0.1514,-0.1542,-0.1618,-0.165,-0.1707,-0.1761,-0.179,-0.1867,-0.1896,-0.1964,-0.1989,-0.2004,-0.2023,-0.2047,-0.2085,-0.2063,-0.2064,-0.2018,-0.2138,-0.2,-0.199,-0.2132,-0.2133,-0.2134,-0.2095,0,-0.1434,-0.1489,-0.153,-0.1592,-0.1619,-0.168,-0.1726,-0.1785,-0.1829,-0.1869,-0.1914,-0.1958,-0.2002,-0.2022,-0.2064,-0.2074,-0.2101,-0.2092,-0.2107,-0.2105,-0.1957,-0.1992,-0.2139,-0.2098,-0.2098,-0.2099,-0.2099,0,-0.1435,-0.1472,-0.1529,-0.1599,-0.1619,-0.1666,-0.173,-0.1781,-0.1841,-0.1874,-0.1931,-0.1965,-0.201,-0.204,-0.2104,-0.2108,-0.2136,-0.2142,-0.2142,-0.2001,-0.1975,-0.2033,-0.2105,-0.2104,-0.2104,-0.2103,-0.2103,0,-0.1387,-0.1468,-0.1512,-0.1543,-0.1631,-0.1668,-0.1718,-0.1784,-0.1811,-0.1874,-0.1886,-0.1964,-0.1996,-0.2053,-0.2103,-0.2111,-0.2155,-0.2155,-0.2054,-0.2043,-0.2162,-0.2156,-0.2212,-0.2212,-0.2212,-0.2212,-0.2212,0,-0.1365,-0.1405,-0.1499,-0.1527,-0.157,-0.165,-0.1691,-0.1745,-0.1797,-0.1827,-0.1897,-0.1926,-0.2015,-0.2056,-0.2093,-0.2075,-0.2159,-0.2044,-0.2029,-0.2175,-0.2172,-0.2162,-0.2157,-0.221,-0.2211,-0.2211,-0.2211,0,-0.1309,-0.1375,-0.1429,-0.1527,-0.1551,-0.1589,-0.1661,-0.1679,-0.1754,-0.1784,-0.1804,-0.1896,-0.1948,-0.2005,-0.2071,-0.2039,-0.2037,-0.2026,-0.2147,-0.2142,-0.1893,-0.1891,-0.1852,-0.1847,-0.1842,-0.1839,-0.1836,0,-0.1285,-0.1308,-0.1411,-0.1432,-0.1481,-0.1535,-0.1557,-0.1642,-0.1656,-0.177,-0.1769,-0.1844,-0.1902,-0.186,-0.1948,-0.1948,-0.1966,-0.1921,-0.1926,-0.1869,-0.186,-0.1864,-0.1867,-0.1829,-0.1828,-0.1827,-0.1826,0,-0.1231,-0.1284,-0.1327,-0.1362,-0.1398,-0.1427,-0.1474,-0.1467,-0.1576,-0.1645,-0.1691,-0.171,-0.1755,-0.1789,-0.1802,-0.1826,-0.1907,-0.1876,-0.1885,-0.1889,-0.1841,-0.1837,-0.1845,-0.1811,-0.1813,-0.1814,-0.1815,0,-0.1191,-0.12,-0.1255,-0.1268,-0.1317,-0.1322,-0.1355,-0.1383,-0.1411,-0.1537,-0.1564,-0.1665,-0.1762,-0.1728,-0.1756,-0.1734,-0.1708,-0.165,-0.167,-0.1687,-0.1653,-0.1569,-0.1431,0,0,0,0,0,-0.1131,-0.1119,-0.1143,-0.1162,-0.1211,-0.1228,-0.1298,-0.1336,-0.1432,-0.1423,-0.1487,-0.1533,-0.1556,-0.1609,-0.1552,-0.1664,-0.1706,-0.1587,-0.1648,-0.1729,-0.1746,-0.1722,0,0,0,0,0,0,-0.1083,-0.1111,-0.1107,-0.107,-0.1059,-0.1093,-0.1138,-0.1207,-0.1205,-0.132,-0.1344,-0.1422,-0.1468,-0.157,-0.1518,-0.1527,-0.1529,-0.1643,-0.1639,-0.1719,-0.1734,-0.1748,-0.1729,0,0,0,0,0]},{"header":{"parameterUnit":"m.s-1","parameterCategory":2,"la1":30.2991,"la2":30.254,"lo1":-89.0895,"lo2":-89.0444,"dy":0.0017,"dx":0.0017,"nx":28,"ny":28,"refTime":"2025-04-14T09:00:00:Z","depth":"4","parameterNumber":3,"parameterNumberName":"V-component_of_CURRENTS"},"data":[0,0,0,0,0,0,0,0,0,0,0,0,0,0,0,0,0,0,0,0,0,0,0,0,0,0,0,0,0,0,0,0,0,0,0,0,0,0,0,0,0,0,0,0,0,0,0,0,0,0,0,0,0,0,0,0,0,0,-0.0104,-0.0104,0,-0.0087,-0.0087,-0.0087,-0.0049,-0.0049,-0.0048,-0.0047,-0.0019,-0.0019,-0.002,0,0,0,0,0,0,0,0,0,0,0,0,0,-0.0084,-0.0085,-0.0104,-0.0104,-0.0103,-0.0087,-0.0087,-0.0087,-0.005,-0.0048,-0.0047,-0.0046,-0.0019,-0.0019,-0.002,0,0,0,0,0,0,0,0,0,0,0,0,0,-0.0084,-0.0085,-0.0104,-0.0082,-0.008,-0.0087,-0.0087,-0.0087,-0.005,-0.0048,-0.0047,-0.0046,-0.0019,-0.0019,-0.002,-0.0046,0,0,-0.002,-0.002,0,0,0,0,0,0,0,0,-0.0084,-0.0084,-0.0086,-0.0084,-0.0081,-0.0068,-0.007,-0.0072,-0.005,-0.0062,-0.0047,-0.0045,-0.0035,-0.0034,-0.0035,-0.0045,-0.0044,-0.002,-0.002,-0.002,-0.002,0,0,0,0,0,0,0,-0.0084,-0.0085,-0.0098,-0.0085,-0.0083,-0.0066,-0.0065,-0.007,-0.0057,-0.0061,-0.0058,-0.0055,-0.0034,-0.0035,-0.0034,-0.0043,-0.002,-0.002,-0.002,-0.002,-0.0078,-0.0079,0,0,0,0,0,0,-0.0087,-0.0085,-0.0099,-0.0098,-0.0078,-0.0068,-0.0066,-0.0074,-0.0057,-0.0053,-0.0056,-0.0053,-0.0036,-0.0034,-0.0033,-0.0077,-0.002,-0.002,-0.002,-0.0077,-0.0078,-0.008,0,0,0,0,0,0,-0.0086,-0.0089,-0.01,-0.0089,-0.0089,-0.0069,-0.0079,-0.0075,-0.0069,-0.0053,-0.0048,-0.0053,-0.0034,-0.0033,-0.0037,-0.0075,-0.002,-0.002,-0.0075,-0.0077,-0.0079,-0.0156,0,0,0,0,0,0,-0.0086,-0.0089,-0.0096,-0.009,-0.009,-0.0111,-0.008,-0.0075,-0.0069,-0.0065,-0.005,-0.0046,-0.0033,-0.0037,-0.0038,-0.0074,-0.002,-0.0073,-0.0076,-0.0078,-0.0152,-0.0161,-0.0168,0,0,0,0,0,-0.0086,-0.0103,-0.0096,-0.0098,-0.0101,-0.0112,-0.0111,-0.0092,-0.007,-0.008,-0.0063,-0.0046,-0.0055,-0.0039,-0.0038,-0.0076,-0.0072,-0.0075,-0.0078,-0.0148,-0.0159,-0.0168,0,0,0,0,0,0,-0.0098,-0.0101,-0.0093,-0.011,-0.0113,-0.0105,-0.0109,-0.0095,-0.0091,-0.0082,-0.006,-0.0057,-0.0077,-0.0065,-0.0047,-0.0101,-0.0063,-0.0067,-0.0116,-0.0126,-0.0135,-0.0146,-0.002,0,0,0,0,0,-0.0105,-0.0118,-0.0118,-0.0131,-0.0134,-0.0121,-0.0121,-0.0111,-0.0105,-0.01,-0.009,-0.0084,-0.0095,-0.0098,-0.0101,-0.0128,-0.0087,-0.0154,-0.0162,-0.0169,-0.0179,-0.0157,-0.0164,-0.0091,-0.0091,-0.0091,0,0,-0.0114,-0.0116,-0.0123,-0.0135,-0.0132,-0.0154,-0.0118,-0.0124,-0.0145,-0.01,-0.0121,-0.0111,-0.0107,-0.0138,-0.0148,-0.013,-0.0162,-0.0174,-0.018,-0.0185,-0.0161,-0.0168,-0.0174,-0.0093,-0.0093,-0.0092,0,0,-0.0141,-0.014,-0.0161,-0.017,-0.0173,-0.0173,-0.0176,-0.0174,-0.0173,-0.0193,-0.017,-0.0184,-0.0189,-0.0205,-0.0211,-0.027,-0.0205,-0.0265,-0.032,-0.03,-0.0305,-0.031,-0.0235,-0.0233,-0.0272,-0.0272,-0.0272,0,-0.0149,-0.0179,-0.017,-0.0195,-0.0208,-0.0186,-0.0218,-0.0224,-0.0223,-0.0237,-0.0209,-0.0237,-0.0231,-0.0283,-0.03,-0.0292,-0.0238,-0.0282,-0.031,-0.0313,-0.0317,-0.024,-0.0236,-0.0276,-0.0276,-0.0275,-0.0275,0,-0.0195,-0.022,-0.0234,-0.0263,-0.0278,-0.03,-0.0309,-0.0324,-0.0316,-0.0322,-0.0356,-0.0348,-0.0364,-0.0372,-0.0352,-0.0388,-0.0325,-0.0318,-0.0282,-0.0328,-0.0244,-0.0238,-0.0282,-0.0281,-0.028,-0.0279,0,0,-0.0213,-0.0258,-0.0264,-0.0293,-0.0316,-0.0337,-0.0377,-0.0415,-0.0445,-0.0445,-0.0482,-0.0509,-0.0488,-0.0493,-0.0475,-0.0463,-0.0431,-0.0398,-0.0395,-0.032,-0.0329,-0.0237,-0.022,-0.0416,-0.0416,-0.0416,-0.0249,0,-0.0252,-0.0314,-0.0328,-0.0395,-0.0429,-0.0436,-0.0479,-0.0508,-0.052,-0.0549,-0.0549,-0.0574,-0.0539,-0.0543,-0.0529,-0.0464,-0.0425,-0.0474,-0.03,-0.0294,-0.0204,-0.0215,-0.0418,-0.0244,-0.0243,-0.0242,-0.0241,0,-0.0294,-0.0331,-0.04,-0.0468,-0.0484,-0.0525,-0.0588,-0.0622,-0.0657,-0.0661,-0.0679,-0.0661,-0.0664,-0.0616,-0.0524,-0.0546,-0.0442,-0.0378,-0.037,-0.0257,-0.0193,-0.0196,-0.023,-0.0231,-0.0232,-0.0232,-0.0233,0,-0.0312,-0.0386,-0.0444,-0.0466,-0.0535,-0.0576,-0.0613,-0.0659,-0.0693,-0.0726,-0.0738,-0.0734,-0.0709,-0.0624,-0.0476,-0.0498,-0.0326,-0.0346,-0.0158,-0.0147,-0.0246,-0.0243,-0.0263,-0.0263,-0.0263,-0.0264,-0.0264,0,-0.0348,-0.0398,-0.0461,-0.0495,-0.0575,-0.0607,-0.0686,-0.072,-0.076,-0.0791,-0.0789,-0.0778,-0.0705,-0.0597,-0.0478,-0.0275,-0.0319,-0.016,-0.0109,-0.0277,-0.028,-0.0239,-0.0238,-0.0257,-0.0259,-0.026,-0.0261,0,-0.0358,-0.0399,-0.0474,-0.0554,-0.0587,-0.0641,-0.0727,-0.0777,-0.0803,-0.0836,-0.0843,-0.0797,-0.0647,-0.0524,-0.0349,-0.0255,-0.0093,0.0005,-0.013,-0.009,0.0072,0.0066,0.0184,0.0188,0.0192,0.0195,0.0198,0,-0.0369,-0.0405,-0.0506,-0.0559,-0.0601,-0.0683,-0.0739,-0.0793,-0.083,-0.0825,-0.0828,-0.0708,-0.0646,-0.0316,-0.0197,0.0049,0.0085,0.0166,0.0052,0.0075,0.0112,0.0101,0.009,0.0204,0.0205,0.0206,0.0207,0,-0.0384,-0.0417,-0.0476,-0.0578,-0.0654,-0.0736,-0.0808,-0.0832,-0.0866,-0.0887,-0.0776,-0.0639,-0.0444,-0.0255,-0.0032,0.0128,0.0083,0.0205,0.0196,0.0089,0.0101,0.0131,0.0117,0.022,0.0218,0.0216,0.0216,0,-0.0384,-0.0425,-0.05,-0.0589,-0.0691,-0.0763,-0.0805,-0.0813,-0.0834,-0.0814,-0.075,-0.0573,-0.0475,-0.0203,-0.0008,0.0166,0.0169,0.0177,0.0169,0.0157,0.0084,0.0091,0.0256,0,0,0,0,0,-0.0368,-0.0412,-0.0507,-0.0613,-0.0717,-0.0766,-0.0842,-0.0868,-0.0883,-0.0791,-0.0771,-0.0577,-0.029,-0.0175,0.002,0.0024,0.0175,0.0252,0.0173,0.0292,0.0277,0.0202,0,0,0,0,0,0,-0.0357,-0.0433,-0.0491,-0.0613,-0.0682,-0.0787,-0.0829,-0.0841,-0.0784,-0.0762,-0.0597,-0.0528,-0.0242,-0.0378,0.0032,0.0079,0.0053,0.0382,0.0386,0.03,0.0287,0.0274,0.0192,0,0,0,0,0]}]]